FW2104 Weather Reports


time (UTC)temp
C
wind
direction
speed
KPH
gust
KPH
rain 1hr
cm
rain 24hr
cm
rain mn
cm
humidity
%
barometer
mb
20260505214043 32 135 4.8 8.0 0.00 0.00 0.00 58 1006.4
20260505213527 32 248 3.2 8.0 0.00 0.00 0.00 58 1006.5
20260505212958 32 248 3.2 6.4 0.00 0.00 0.00 56 1006.5
20260505212442 32 248 4.8 6.4 0.00 0.00 0.00 56 1006.5
20260505211938 32 225 4.8 8.0 0.00 0.00 0.00 58 1006.7
20260505211424 32 270 4.8 8.0 0.00 0.00 0.00 59 1006.7
20260505210924 32 338 4.8 8.0 0.00 0.00 0.00 58 1006.7
20260505210342 32 202 4.8 8.0 0.00 0.00 0.00 58 1006.7
20260505205826 31 292 3.2 8.0 0.00 0.00 0.00 59 1006.9
20260505205257 32 202 4.8 6.4 0.00 0.00 0.00 58 1006.9
20260505205009 32 225 3.2 6.4 0.00 0.00 0.00 58 1007.2
20260505204230 32 270 4.8 11.3 0.00 0.00 0.00 57 1007.2
20260505203723 32 292 4.8 11.3 0.00 0.00 0.00 57 1007.2
20260505203210 32 225 6.4 8.0 0.00 0.00 0.00 56 1007.2
20260505202916 33 292 4.8 8.0 0.00 0.00 0.00 57 1007.2
20260505202139 32 225 3.2 8.0 0.00 0.00 0.00 58 1007.2
20260505201633 32 270 4.8 9.7 0.00 0.00 0.00 56 1007.2
20260505201351 32 270 6.4 9.7 0.00 0.00 0.00 55 1007.3
20260505200621 32 248 4.8 9.7 0.00 0.00 0.00 56 1007.3
20260505200111 32 270 6.4 9.7 0.00 0.00 0.00 55 1007.3
20260505195822 32 180 6.4 9.7 0.00 0.00 0.00 57 1007.4
20260505195031 32 225 4.8 9.7 0.00 0.00 0.00 57 1007.4
20260505194519 32 225 6.4 9.7 0.00 0.00 0.00 57 1007.4
20260505194017 32 292 4.8 8.0 0.00 0.00 0.00 57 1007.4
20260505193736 32 202 4.8 9.7 0.00 0.00 0.00 57 1007.4
20260505192957 32 112 6.4 9.7 0.00 0.00 0.00 59 1007.4
20260505192453 32 270 6.4 8.0 0.00 0.00 0.00 59 1007.4
20260505192203 31 248 6.4 8.0 0.00 0.00 0.00 59 1007.3
20260505191434 31 225 4.8 8.0 0.00 0.00 0.00 60 1007.3
20260505191149 31 202 4.8 8.0 0.00 0.00 0.00 60 1007.5
20260505190356 31 68 4.8 9.7 0.00 0.00 0.00 62 1007.5
20260505185840 30 270 6.4 9.7 0.00 0.00 0.00 63 1007.5
20260505185341 30 112 4.8 12.9 0.00 0.00 0.00 63 1007.5
20260505184759 29 180 6.4 12.9 0.00 0.00 0.00 64 1007.7
20260505184242 29 248 4.8 8.0 0.00 0.00 0.00 65 1007.7
20260505183713 29 202 4.8 8.0 0.00 0.00 0.00 64 1007.7
20260505183145 29 292 4.8 6.4 0.00 0.00 0.00 65 1007.6
20260505182631 28 292 4.8 8.0 0.00 0.00 0.00 66 1007.6
20260505182033 28 270 6.4 8.0 0.00 0.00 0.00 66 1007.8
20260505181531 29 180 6.4 8.0 0.00 0.00 0.00 65 1007.8
20260505181027 30 248 4.8 8.0 0.00 0.00 0.00 64 1007.6
20260505180513 30 248 3.2 6.4 0.00 0.00 0.00 64 1007.6
20260505180012 30 315 6.4 6.4 0.00 0.00 0.00 64 1007.6
20260505175459 30 225 4.8 6.4 0.00 0.00 0.00 63 1007.6
20260505175209 30 270 4.8 8.0 0.00 0.00 0.00 65 1007.6
20260505174920 29 270 4.8 9.7 0.00 0.00 0.00 67 1007.6
20260505174208 28 225 6.4 11.3 0.00 0.00 0.00 68 1007.6
20260505173656 28 225 6.4 11.3 0.00 0.00 0.00 66 1007.8
20260505172911 28 90 4.8 9.7 0.00 0.00 0.00 66 1007.8
20260505172405 29 180 6.4 9.7 0.00 0.00 0.00 65 1007.9
20260505171814 29 202 6.4 8.0 0.00 0.00 0.00 66 1007.9
20260505171644 28 270 4.8 8.0 0.00 0.00 0.00 68 1007.9
20260505171323 28 112 4.8 8.0 0.00 0.00 0.00 69 1007.9
20260505170238 28 292 6.4 8.0 0.00 0.00 0.00 68 1007.9
20260505170024 28 0 6.4 8.0 0.00 0.00 0.00 68 1007.8
20260505165218 28 270 4.8 11.3 0.00 0.00 0.00 68 1007.8
20260505164713 27 225 6.4 11.3 0.00 0.00 0.00 69 1007.9
20260505164151 27 270 6.4 9.7 0.00 0.00 0.00 69 1007.9
20260505163909 27 292 4.8 9.7 0.00 0.00 0.00 69 1007.9
20260505163155 27 158 3.2 9.7 0.00 0.00 0.00 70 1007.7
20260505162616 27 180 6.4 14.5 0.00 0.00 0.00 70 1007.7
20260505162101 27 270 6.4 14.5 0.00 0.00 0.00 69 1007.6
20260505161517 27 248 6.4 12.9 0.00 0.00 0.00 70 1007.6
20260505160947 27 270 8.0 12.9 0.00 0.00 0.00 70 1007.5
20260505160616 26 225 8.0 12.9 0.00 0.00 0.00 72 1007.3
20260505160444 27 338 4.8 11.3 0.00 0.00 0.00 71 1007.5
20260505160359 26 225 8.0 12.9 0.00 0.00 0.00 72 1007.3
20260505160151 26 225 8.0 12.9 0.00 0.00 0.00 72 1007.3
20260505152247 26 225 8.0 11.3 0.00 0.00 0.00 74 1007.6
20260505151747 25 270 6.4 12.9 0.00 0.00 0.00 76 1007.6
20260505151247 25 180 6.4 12.9 0.00 0.00 0.00 76 1007.6
20260505150739 25 180 8.0 12.9 0.00 0.00 0.00 76 1007.7
20260505150146 25 292 6.4 12.9 0.00 0.00 0.00 76 1007.7
20260505140154 23 225 4.8 9.7 0.00 0.00 0.00 81 1007.5
20260505130223 22 45 4.8 12.9 0.00 0.00 0.00 83 1007.5
20260505124853 21 270 6.4 9.7 0.00 0.00 0.00 84 1007.0
20260505124125 21 158 6.4 9.7 0.00 0.00 0.00 84 1007.0
20260505123556 21 158 6.4 9.7 0.00 0.00 0.00 84 1006.9
20260505123051 21 270 6.4 12.9 0.00 0.00 0.00 84 1006.9
20260505122542 21 158 6.4 12.9 0.00 0.00 0.00 84 1006.9
20260505122026 21 68 4.8 9.7 0.00 0.00 0.00 84 1006.9
20260505121523 21 202 4.8 8.0 0.00 0.00 0.00 84 1006.9
20260505121017 21 202 6.4 12.9 0.00 0.00 0.00 84 1006.9
20260505120508 21 202 8.0 12.9 0.00 0.00 0.00 84 1006.9
20260505115953 21 202 6.4 9.7 0.00 0.00 0.00 84 1006.9
20260505115449 21 225 6.4 9.7 0.00 0.00 0.00 84 1006.7
20260505115140 21 202 6.4 9.7 0.00 0.00 0.00 84 1006.7
20260505114904 21 292 4.8 9.7 0.00 0.00 0.00 84 1006.6
20260505113905 21 202 6.4 9.7 0.00 0.00 0.00 84 1006.6
20260505113336 21 68 3.2 8.0 0.00 0.00 0.00 84 1006.6
20260505112806 21 202 4.8 8.0 0.00 0.00 0.00 84 1006.6
20260505112238 21 225 6.4 8.0 0.00 0.00 0.00 84 1006.6
20260505111712 21 270 4.8 12.9 0.00 0.00 0.00 84 1006.6
20260505111210 21 225 6.4 12.9 0.00 0.00 0.00 84 1006.6
20260505110648 21 180 4.8 9.7 0.00 0.00 0.00 84 1006.4
20260505110144 21 270 6.4 8.0 0.00 0.00 0.00 83 1006.4
20260505101935 21 248 6.4 11.3 0.00 0.00 0.00 83 1006.7
20260505101405 21 270 6.4 11.3 0.00 0.00 0.00 83 1006.7
20260505100836 21 225 6.4 9.7 0.00 0.00 0.00 83 1006.7
20260505100307 21 202 6.4 9.7 0.00 0.00 0.00 83 1006.7
20260505095737 21 270 6.4 9.7 0.00 0.00 0.00 83 1006.7
20260505095448 21 202 8.0 14.5 0.00 0.00 0.00 83 1006.7
20260505094717 21 180 8.0 14.5 0.00 0.00 0.00 83 1006.8
20260505094419 21 225 6.4 9.7 0.00 0.00 0.00 83 1006.8
20260505093651 21 270 4.8 9.7 0.00 0.00 0.00 83 1006.8
20260505093149 21 270 6.4 9.7 0.00 0.00 0.00 83 1007.0
20260505092644 21 248 4.8 8.0 0.00 0.00 0.00 83 1007.0
20260505092131 21 68 4.8 9.7 0.00 0.00 0.00 83 1007.2
20260505091630 21 45 4.8 9.7 0.00 0.00 0.00 83 1007.2
20260505091101 21 225 8.0 11.3 0.00 0.00 0.00 83 1007.0
20260505090806 21 248 6.4 11.3 0.00 0.00 0.00 83 1007.0
20260505090042 21 315 8.0 11.3 0.00 0.00 0.00 83 1007.0
20260505085512 21 225 6.4 9.7 0.00 0.00 0.00 83 1007.0
20260505084944 21 225 6.4 11.3 0.00 0.00 0.00 83 1007.0
20260505084654 21 202 6.4 14.5 0.00 0.00 0.00 83 1007.0
20260505083928 21 270 9.7 14.5 0.00 0.00 0.00 83 1007.0
20260505083643 21 202 4.8 9.7 0.00 0.00 0.00 83 1007.0
20260505082900 21 202 8.0 9.7 0.00 0.00 0.00 83 1007.0
20260505082610 21 225 6.4 12.9 0.00 0.00 0.00 83 1007.0
20260505081842 21 248 9.7 12.9 0.00 0.00 0.00 83 1007.2
20260505081341 21 0 6.4 9.7 0.00 0.00 0.00 83 1007.2
20260505080836 21 180 6.4 9.7 0.00 0.00 0.00 83 1007.3
20260505080330 21 270 4.8 9.7 0.00 0.00 0.00 82 1007.3
20260505075822 21 225 6.4 14.5 0.00 0.00 0.00 82 1007.4
20260505075311 21 225 8.0 14.5 0.00 0.00 0.00 82 1007.4
20260505075030 21 90 4.8 9.7 0.00 0.00 0.00 82 1007.6
20260505074257 21 270 6.4 9.7 0.00 0.00 0.00 82 1007.6
20260505073747 21 112 6.4 11.3 0.00 0.00 0.00 82 1007.6
20260505073233 21 338 6.4 11.3 0.00 0.00 0.00 81 1007.9
20260505072728 21 338 6.4 11.3 0.00 0.00 0.00 81 1007.9
20260505072422 21 292 8.0 11.3 0.00 0.00 0.00 81 1008.0
20260505071923 21 202 6.4 9.7 0.00 0.00 0.00 81 1008.0
20260505071143 21 180 6.4 8.0 0.00 0.00 0.00 81 1008.1
20260505070629 21 202 4.8 8.0 0.00 0.00 0.00 81 1008.1
20260505070125 21 202 4.8 8.0 0.00 0.00 0.00 81 1008.1
20260505065554 21 270 6.4 8.0 0.00 0.00 0.00 80 1008.2
20260505065052 22 225 4.8 9.7 0.00 0.00 0.00 80 1008.2
20260505064542 22 180 6.4 12.9 0.00 0.00 0.00 80 1008.4
20260505064515 22 180 6.4 12.9 0.00 0.00 0.00 80 1008.4
20260505063523 22 248 6.4 8.0 0.00 0.00 0.00 79 1008.4
20260505062953 22 22 4.8 8.0 0.00 0.00 0.00 79 1008.4
20260505062423 22 202 4.8 9.7 0.00 0.00 0.00 79 1008.4
20260505061921 22 270 6.4 9.7 0.00 0.00 0.00 79 1008.4
20260505061410 22 248 4.8 9.7 0.00 0.00 0.00 79 1008.4
20260505060842 22 112 4.8 8.0 0.00 0.00 0.00 79 1008.4
20260505060259 22 270 6.4 8.0 0.00 0.00 0.00 79 1008.4
20260505055756 22 315 4.8 6.4 0.00 0.00 0.00 78 1008.5
20260505055251 22 158 4.8 12.9 0.00 0.00 0.00 78 1008.5
20260505055012 22 180 6.4 12.9 0.00 0.00 0.00 78 1008.5
20260505054507 22 292 6.4 9.7 0.00 0.00 0.00 78 1008.5
20260505053722 22 180 6.4 14.5 0.00 0.00 0.00 78 1008.5
20260505053217 22 225 6.4 14.5 0.00 0.00 0.00 78 1008.7
20260505052715 22 315 6.4 12.9 0.00 0.00 0.00 77 1008.7
20260505052144 22 292 4.8 9.7 0.00 0.00 0.00 77 1008.7
20260505051635 22 225 6.4 9.7 0.00 0.00 0.00 77 1008.7
20260505051119 22 202 4.8 6.4 0.00 0.00 0.00 77 1008.7
20260505050615 22 225 4.8 9.7 0.00 0.00 0.00 76 1008.7
20260505050111 22 180 6.4 14.5 0.00 0.00 0.00 76 1008.7
20260505041410 22 180 4.8 8.0 0.00 0.00 0.00 75 1008.9
20260505040904 22 202 6.4 9.7 0.00 0.00 0.00 75 1009.0
20260505040615 22 158 6.4 9.7 0.00 0.00 0.00 74 1009.0
20260505035842 23 45 4.8 8.0 0.00 0.00 0.00 74 1008.9
20260505035557 23 112 4.8 8.0 0.00 0.00 0.00 74 1008.9
20260505035031 23 180 6.4 14.5 0.00 0.00 0.00 74 1008.9
20260505034302 23 180 8.0 14.5 0.00 0.00 0.00 74 1008.9
20260505033753 23 112 8.0 14.5 0.00 0.00 0.00 74 1008.9
20260505033238 23 180 6.4 8.0 0.00 0.00 0.00 74 1009.0
20260505032731 23 270 4.8 9.7 0.00 0.00 0.00 74 1009.0
20260505032230 23 248 6.4 9.7 0.00 0.00 0.00 74 1009.0
20260505031718 23 158 6.4 8.0 0.00 0.00 0.00 73 1009.0
20260505031208 23 158 4.8 9.7 0.00 0.00 0.00 73 1009.0
20260505030658 23 180 4.8 9.7 0.00 0.00 0.00 73 1009.0
20260505030155 23 180 6.4 9.7 0.00 0.00 0.00 73 1009.0
20260505025645 23 112 4.8 9.7 0.00 0.00 0.00 73 1009.0
20260505025115 23 248 3.2 4.8 0.00 0.00 0.00 73 1009.0
20260505024602 23 0 4.8 4.8 0.00 0.00 0.00 73 1009.0
20260505024325 23 112 3.2 6.4 0.00 0.00 0.00 72 1009.0
20260505023551 23 0 4.8 11.3 0.00 0.00 0.00 72 1008.8
20260505023041 23 225 6.4 11.3 0.00 0.00 0.00 72 1008.8
20260505022527 23 112 6.4 8.0 0.00 0.00 0.00 72 1008.8
20260505022021 23 112 4.8 8.0 0.00 0.00 0.00 72 1008.8
20260505021518 23 180 6.4 8.0 0.00 0.00 0.00 72 1008.8
20260505021018 23 248 4.8 8.0 0.00 0.00 0.00 71 1008.8
20260505020439 23 135 4.8 8.0 0.00 0.00 0.00 71 1008.8
20260505015910 23 135 4.8 8.0 0.00 0.00 0.00 70 1008.9
20260505015341 23 135 4.8 8.0 0.00 0.00 0.00 70 1008.9
20260505014810 23 270 6.4 9.7 0.00 0.00 0.00 70 1008.8
20260505014257 23 112 6.4 9.7 0.00 0.00 0.00 69 1008.8
20260505013752 23 202 6.4 9.7 0.00 0.00 0.00 69 1008.8
20260505013249 23 202 4.8 6.4 0.00 0.00 0.00 69 1008.8
20260505012725 23 180 4.8 9.7 0.00 0.00 0.00 69 1008.8
20260505012223 24 225 4.8 9.7 0.00 0.00 0.00 69 1008.8
20260505011717 24 22 6.4 9.7 0.00 0.00 0.00 68 1008.8
20260505011213 24 225 6.4 12.9 0.00 0.00 0.00 68 1008.8
20260505010914 24 158 6.4 12.9 0.00 0.00 0.00 68 1008.6
20260505010149 24 158 6.4 8.0 0.00 0.00 0.00 67 1008.6
20260505005644 24 202 4.8 9.7 0.00 0.00 0.00 67 1008.7
20260505005139 24 292 6.4 17.7 0.00 0.00 0.00 66 1008.7
20260505004617 25 202 8.0 17.7 0.00 0.00 0.00 66 1008.7
20260505004115 25 225 6.4 9.7 0.00 0.00 0.00 66 1008.7
20260505003832 25 202 4.8 8.0 0.00 0.00 0.00 65 1008.8
20260505003040 25 158 6.4 8.0 0.00 0.00 0.00 65 1008.8
20260505002537 25 338 6.4 8.0 0.00 0.00 0.00 64 1008.8
20260505002027 25 68 4.8 8.0 0.00 0.00 0.00 64 1008.9
20260505001512 25 225 4.8 8.0 0.00 0.00 0.00 64 1008.9
20260505001008 25 180 6.4 12.9 0.00 0.00 0.00 63 1008.9
20260505000502 25 180 8.0 12.9 0.00 0.00 0.00 63 1008.9
20260504235941 26 90 6.4 14.5 0.00 0.00 0.00 62 1008.9
20260504235425 26 270 9.7 17.7 0.00 0.00 0.00 62 1008.9
20260504235048 26 180 8.0 12.9 0.00 0.00 0.00 61 1009.0
20260504235034 26 0 9.7 17.7 0.00 0.00 0.00 62 1008.9
20260504234031 26 135 9.7 16.1 0.00 0.00 0.00 61 1009.1
20260504234018 26 112 8.0 12.9 0.00 0.00 0.00 61 1009.0
20260504233011 26 202 9.7 16.1 0.00 0.00 0.00 61 1009.1
20260504232514 26 202 6.4 12.9 0.00 0.00 0.00 61 1009.2
20260504231710 26 202 6.4 17.7 0.00 0.00 0.00 60 1009.2
20260504231141 26 270 8.0 17.7 0.00 0.00 0.00 60 1009.3
20260504230629 26 225 6.4 12.9 0.00 0.00 0.00 60 1009.3
20260504230127 26 225 8.0 12.9 0.00 0.00 0.00 59 1009.3
20260504225606 27 180 6.4 11.3 0.00 0.00 0.00 59 1009.5
20260504225316 27 270 6.4 11.3 0.00 0.00 0.00 59 1009.5
20260504224551 27 248 6.4 11.3 0.00 0.00 0.00 59 1009.4
20260504224257 27 292 8.0 14.5 0.00 0.00 0.00 59 1009.4
20260504223532 27 202 9.7 14.5 0.00 0.00 0.00 59 1009.3
20260504223448 27 202 6.4 9.7 0.00 0.00 0.00 59 1009.3
20260504222458 27 158 6.4 14.5 0.00 0.00 0.00 58 1009.3
20260504221948 26 270 9.7 14.5 0.00 0.00 0.00 58 1009.6
20260504221420 27 225 8.0 11.3 0.00 0.00 0.00 57 1009.6
20260504220904 27 202 6.4 11.3 0.00 0.00 0.00 58 1009.7
20260504220401 27 292 6.4 9.7 0.00 0.00 0.00 58 1009.7
20260504220339 27 225 8.0 11.3 0.00 0.00 0.00 58 1009.9
20260504215346 27 202 8.0 11.3 0.00 0.00 0.00 58 1009.9
20260504214830 27 248 6.4 16.1 0.00 0.00 0.00 57 1009.9